Location: Cuiry
(49.3858°N, 3.7708°E)
Time: 00:17:24
(UTC+00:00)

Cosmos 2239 Rocket - Pass Details

Date: 12 January 2026
Orbit: 953 x 991 km, 82.9° (Epoch: 17 February)

Event Time Altitude Azimuth Distance (km) Brightness Sun altitude
Rises 18:08:29 0° 352° (N) 3,711 7.5 -18.6°
Reaches altitude 10° 18:11:05 10° 357° (N) 2,755 6.8 -19.0°
Maximum altitude 18:17:19 59° 76° (ENE) 1,130 4.5 -20.0°
Drops below altitude 10° 18:23:27 10° 155° (SSE) 2,712 6.7 -21.0°
Sets 18:25:59 0° 160° (SSE) 3,649 7.4 -21.4°
